sat.trackr.live / text

‹ back to catalog

ONEWEB-0293

NORAD 49082 · 2021-075H

PAYLOAD ACTIVE UNKNOWN

§ Identity

Operator
Country
UK
Launch date
2021-08-21
Launch site
TYMSC
Launch vehicle
Mass (kg)
RCS (m²)

Purposes: comms

External: N2YO · Heavens-Above · Gunter

§ Orbital elements

Epoch: 2026-05-25T02:29:44.782656Z

Period
109.29 min
Inclination
87.9152°
Eccentricity
0.0001667
Mean motion
13.17651070 rev/d
Perigee alt
1,192.4 km
Apogee alt
1,195.0 km
Semi-major
7,571.8 km
B*
-3.6182e-5
RAAN
10.4559°
Arg perigee
87.1205°
Mean anomaly
273.0118°
Rev number
23,059

§ Raw data

ONEWEB-02931 49082U 21075H   26145.10399054 -.00000001  00000+0 -36182-4 0  99932 49082  87.9152  10.4559 0001667  87.1205 273.0118 13.17651070230596

JSON: /api/v1/satellites/49082 · /tle

For live sub-satellite position, see the globe view (requires WebGL).

§ Visibility from observer

Set your observer location to see the next 7 days of passes ≥ 10°. The values pass through the URL so the page stays shareable.

No JS? Fill the form by hand. The geolocation button needs JavaScript.